Regional Weather Roundup
Issued by NWS

Home | Current Version | Previous Version | Graphics & Text | Print | Product List | Glossary On
Versions: 1 2 3 4 5 6 7 8 9 10 11 12 13 14 15 16 17 18 19 20 21 22 23 24 25 26 27
000
ASUS45 KBOU 230006
RWRCO

WEATHER ROUNDUP FOR COLORADO
NATIONAL WEATHER SERVICE DENVER/BOULDER CO
600 PM MDT TUE APR 22 2014

NOTE: "FAIR" INDICATES FEW OR NO CLOUDS BELOW 12000 FEET WITH NO
SIGNIFICANT WEATHER AND/OR OBSTRUCTIONS TO VISIBILITY.

COZ001>005-013-030-031-230100-
...NORTHWEST COLORADO...

CITY           SKY/WX    TMP DP  RH WIND       PRES   REMARKS
CRAIG          CLOUDY    65  25  22 SW16G24   29.76F
HAYDEN         CLOUDY    64  23  20 SW17G24   29.82F
MEEKER         CLOUDY    65  25  22 S8        29.77F
MOUNT WERNER   NOT AVBL
STEAMBOAT SPGS CLOUDY    60  29  30 SE9       29.81F
WALDEN         CLOUDY    54  28  37 S16G32    29.89F
$$

COZ006>008-011-230100-
...WEST CENTRAL VALLEYS...

CITY           SKY/WX    TMP DP  RH WIND       PRES   REMARKS
GRAND JUNCTION CLOUDY    70  29  21 N10       29.68F
MONTROSE       CLOUDY    68  35  29 SE23      29.80F
EAGLE          CLOUDY    66  28  24 S10       29.83F
RIFLE          CLOUDY    71  26  18 S3        29.73F
DELTA          NOT AVBL
NUCLA          NOT AVBL
$$

COZ017>023-064>068-230100-
...SOUTHWEST COLORADO...

CITY           SKY/WX    TMP DP  RH WIND       PRES   REMARKS
DURANGO        CLOUDY    66  26  22 S24G32    29.91S
CORTEZ         MOSUNNY   73  26  17 SW18G30   29.83F
PAGOSA SPRINGS CLOUDY    65  20  17 SW21G26   29.97S
TELLURIDE      NOT AVBL
WOLF CREEK PAS CLOUDY    37  25  60 S14G39    30.16F
$$

COZ009-010-012-014-032>034-037-058>063-230100-
...CENTRAL COLORADO...

CITY           SKY/WX    TMP DP  RH WIND       PRES   REMARKS
ASPEN          CLOUDY    59  30  33 VRB5      29.90F
BUENA VISTA    PTSUNNY   58  30  34 W20G25    29.94R
COPPER MTN     CLOUDY    45  27  49 S15       30.12F
BERTHOUD PASS  PTSUNNY   34  27  75 W6        30.16F WCI  29
COTTONWOOD PAS PTSUNNY   46  32  57 NW12G23   30.03F
GUNNISON       CLOUDY    57  30  35 W16G25    29.98R
KREMMLING      CLOUDY    57  32  38 N3        29.87F
LEADVILLE      CLOUDY    47  28  47 S9        30.01F
MONARCH PASS   CLOUDY    37  25  60 SW44      30.23F
SALIDA         PTSUNNY  N/A N/A N/A W7        29.99F
SUNLIGHT       CLOUDY    45  30  57 S3        30.06S
WILKERSON PASS PTSUNNY   45  28  53 S9        30.12F
$$

COZ069>075-230100-
...SAN LUIS VALLEY/SANGRE DE CRISTO MOUNTAINS...

CITY           SKY/WX    TMP DP  RH WIND       PRES   REMARKS
ALAMOSA        CLOUDY    66  28  24 SW24G39   29.96F
LA VETA PASS   PTSUNNY   48  28  46 SW15G40   30.08F
SAGUACHE       CLOUDY    59  32  36 NW10      29.98F
$$

COZ035-036-038>040-230100-
...NORTHERN COLORADO FRONT RANGE...

CITY           SKY/WX    TMP DP  RH WIND       PRES   REMARKS
DENVER INTL AP CLOUDY    72  33  24 W12       29.74F
DMNS CITY PARK   N/A     72  35  26 NE3       29.74S
AURORA         PTSUNNY   72  32  23 W12       29.77S
FRONT RANGE AP PTSUNNY   77  34  20 SW15      29.76S
ERIE MUNI ARPT CLOUDY    71  36  27 SE6       29.73F
BOULDER MUN AP CLOUDY    70  34  26 W9        29.74F
CENTENNIAL     CLOUDY    69  31  24 SW14      29.77F
BROOMFIELD     PTSUNNY   70  36  28 W16       29.76F
FORT COLLINS   CLOUDY    72  37  28 SE8       29.72F
LONGMONT       NOT AVBL
$$

COZ041-046-047-076>085-087-088-230100-
...PIKES PEAK/PALMER DIVIDE AND SOUTHERN FOOTHILLS...

CITY           SKY/WX    TMP DP  RH WIND       PRES   REMARKS
COLO. SPRINGS  CLOUDY    70  33  25 SW17G32   29.84S
A. F. ACADEMY  CLOUDY    68  32  27 S10G24    29.84S
ELLICOTT       NOT AVBL
FALCON         CLOUDY    67  31  26 S14G26    29.87F
FORT CARSON    CLOUDY    72  35  25 S14G23    29.79F
LIMON          PTSUNNY   71  36  27 S17G31    29.79S
MONUMENT HILL  CLOUDY    63  34  34 S6        29.86F
TRINIDAD       PTSUNNY   71  38  29 S24G32    29.83F
$$

COZ042>045-048>051-090-091-230100-
...NORTHEAST COLORADO...

CITY           SKY/WX    TMP DP  RH WIND       PRES   REMARKS
GREELEY ARPT   CLOUDY    75  32  20 S10       29.71S
AKRON          PTSUNNY   74  34  23 SE12      29.72F
BURLINGTON     MOSUNNY   78  37  22 S28G36    29.74F
WRAY           MOSUNNY   85  31  14 S9        29.69F
STERLING       NOT AVBL
HOLYOKE        NOT AVBL
FORT MORGAN    NOT AVBL
$$

COZ086-089-092>099-230100-
...SOUTHEAST COLORADO...

CITY           SKY/WX    TMP DP  RH WIND       PRES   REMARKS
PUEBLO         CLOUDY    75  38  26 SW16G23   29.75F
LA JUNTA       PTSUNNY   75  46  35 S13       29.76F
LAMAR          CLOUDY    71  51  49 SE5       29.77S
SPRINGFIELD      N/A     64  47  53 W17G38    29.90R
$$



USA.gov is the U.S. government's official web portal to all federal, state and local government web resources and services.